Weather History for KVEL - April, 2014

Change the Weather History Date:

Sunday, April 6, 2014

  Actual Average Record
Temperature  
Mean Temperature 42 °F 44 °F  
Max Temperature 54 °F 56 °F 78 °F (1959)
Min Temperature 30 °F 31 °F 14 °F (1983)
Degree Days  
Heating Degree Days 23 21  
Month to date heating degree days 150 130  
Since 1 July heating degree days 6708 6461  
Cooling Degree Days 0 0  
Month to date cooling degree days 0 0  
Year to date cooling degree days 0 0  
Moisture  
Dew Point 26 °F    
Average Humidity 52    
Maximum Humidity 72    
Minimum Humidity 32    
Precipitation  
Precipitation T in 0.02 in 0.40 in (2001)
Month to date precipitation 0.11 0.13  
Year to date precipitation 1.32 1.83  
Sea Level Pressure  
Sea Level Pressure 30.00 in    
Wind  
Wind Speed 6 mph (West)    
Max Wind Speed 17 mph    
Max Gust Speed 24 mph    
Visibility 10 miles    
Events      
T = Trace of Precipitation, MM = Missing Value Source: NWS Daily Summary

Daily Weather History Graph

Daily Weather History Graph

Search for Another Location

Airport or City:

Trip Planner

Search our weather history database for the weather conditions in past years. The results will help you decide how hot, cold, wet, or windy it might be!

Date:

Astronomy

Apr. 06, 2014 Rise Set
Actual Time 6:53 AM MDT 7:47 PM MDT
Civil Twilight 6:25 AM MDT 8:15 PM MDT
Nautical Twilight 5:52 AM MDT 8:48 PM MDT
Astronomical Twilight 5:18 AM MDT 9:22 PM MDT
Moon 11:56 AM MDT (4/6) 1:46 AM MDT (4/6)
Length of Visible Light 13h 49m
Length of Day
12h 54m
Waxing Crescent, 44% of the Moon is Illuminated
Apr 6
Waxing Crescent
Apr 7
First Quarter
Apr 15
Full
Apr 22
Last Quarter
Apr 29
New

Hourly Weather History & Observations

Time (MDT) Temp. Windchill Dew Point Humidity Pressure Visibility Wind Dir Wind Speed Gust Speed Precip Events Conditions
12:53 AM 36.0 °F 32.1 °F 27.0 °F 70% 29.97 in 10.0 mi WNW 4.6 mph - N/A   Scattered Clouds
1:53 AM 35.1 °F 31.0 °F 27.0 °F 72% 29.98 in 10.0 mi NW 4.6 mph - N/A   Partly Cloudy
2:53 AM 33.1 °F 26.9 °F 25.0 °F 72% 29.97 in 10.0 mi West 6.9 mph - N/A   Scattered Clouds
3:53 AM 34.0 °F 29.8 °F 25.0 °F 70% 29.98 in 10.0 mi WNW 4.6 mph - N/A   Partly Cloudy
4:53 AM 32.0 °F 27.5 °F 25.0 °F 75% 29.97 in 10.0 mi West 4.6 mph - N/A   Overcast
5:53 AM 32.0 °F - 24.1 °F 73% 30.00 in 10.0 mi Calm Calm - N/A   Overcast
6:53 AM 35.1 °F 32.2 °F 19.9 °F 54% 30.02 in 10.0 mi WSW 3.5 mph - N/A   Overcast
7:53 AM 34.0 °F 31.0 °F 25.0 °F 70% 30.04 in 10.0 mi SW 3.5 mph - N/A   Overcast
8:53 AM 39.9 °F - 25.0 °F 55% 30.04 in 10.0 mi Calm Calm - N/A   Clear
9:53 AM 41.0 °F - 28.9 °F 62% 30.05 in 10.0 mi Calm Calm - N/A   Partly Cloudy
10:53 AM 45.0 °F 41.8 °F 27.0 °F 49% 30.05 in 10.0 mi South 5.8 mph - N/A   Overcast
11:53 AM 46.9 °F - 25.0 °F 42% 30.03 in 10.0 mi WSW 5.8 mph - N/A   Overcast
12:53 PM 48.0 °F - 24.1 °F 39% 30.01 in 10.0 mi SW 6.9 mph - N/A   Overcast
1:53 PM 48.0 °F - 23.0 °F 37% 29.99 in 10.0 mi Variable 5.8 mph - N/A   Overcast
2:53 PM 52.0 °F - 24.1 °F 34% 29.96 in 10.0 mi ESE 6.9 mph - N/A   Mostly Cloudy
3:53 PM 54.0 °F - 24.1 °F 31% 29.93 in 10.0 mi NNW 4.6 mph - N/A   Mostly Cloudy
4:53 PM 51.1 °F - 25.0 °F 36% 29.94 in 10.0 mi SSW 13.8 mph 21.9 mph N/A   Overcast
5:53 PM 50.0 °F - 24.1 °F 36% 29.97 in 10.0 mi ENE 8.1 mph - N/A   Overcast
6:53 PM 50.0 °F - 28.0 °F 43% 29.96 in 10.0 mi East 9.2 mph - 0.00 in   Scattered Clouds
7:53 PM 46.0 °F 43.9 °F 26.1 °F 46% 30.00 in 10.0 mi Variable 4.6 mph - N/A   Clear
8:53 PM 41.0 °F 35.2 °F 28.0 °F 60% 30.04 in 10.0 mi East 9.2 mph - N/A   Partly Cloudy
9:53 PM 43.0 °F 37.7 °F 28.0 °F 56% 30.05 in 10.0 mi NNE 9.2 mph - N/A   Scattered Clouds
10:53 PM 45.0 °F 39.7 °F 28.0 °F 52% 30.05 in 10.0 mi NNW 10.4 mph - N/A   Mostly Cloudy
11:53 PM 44.1 °F 42.5 °F 27.0 °F 51% 30.05 in 10.0 mi WSW 3.5 mph - N/A   Clear